Location: Newark
(45.5000°N, 11.4167°E)
Time: 11:43:38
(UTC+00:00)

Courier 1B - Visible Passes

Search period start: 21 August 2019 00:00
Search period end: 31 August 2019 00:00
Orbit: 962 x 1209 km, 28.3° (Epoch: 20 August)

Date Brightness Start Highest point End Pass type
(mag) Time Alt. Az. Time Alt. Az. Time Alt. Az.
21 Aug 9.1 20:09:49 10° SW 20:13:25 15° S 20:13:50 15° S visible
22 Aug 9.2 19:16:08 10° SW 19:19:59 16° S 19:23:17 11° SSE visible
23 Aug 9.4 20:16:43 10° SW 20:19:19 13° SSW 20:19:37 12° SSW visible
24 Aug 9.3 19:22:33 10° SW 19:25:53 14° SSW 19:29:04 10° SSE visible
26 Aug 9.5 19:30:02 10° SW 19:31:45 11° SSW 19:33:27 10° S visible
27 Aug 9.5 18:35:18 10° SW 18:38:20 13° SSW 18:41:19 10° SSE visible
